Time,TemperatureF,DewpointF,PressureIn,WindDirection,WindDirectionDegrees,WindSpeedMPH,WindSpeedGustMPH,Humidity,HourlyPrecipIn,Conditions,Clouds,dailyrainin,SoftwareType,DateUTC
2013-05-20 00:03:00,61.0,60.0,30.12,NNE,14,0.0,0.0,96,0.00,,,0.26,,2013-05-20 04:03:00,
2013-05-20 00:13:00,61.0,60.0,30.12,NNE,14,0.0,0.0,96,0.00,,,0.26,,2013-05-20 04:13:00,
2013-05-20 00:23:00,61.0,60.0,30.11,NNE,14,0.0,0.0,96,0.00,,,0.26,,2013-05-20 04:23:00,
2013-05-20 00:33:00,61.0,60.0,30.11,NNE,14,0.0,0.0,96,0.00,,,0.26,,2013-05-20 04:33:00,
2013-05-20 00:42:00,61.0,60.0,30.11,NNE,14,0.0,0.0,96,0.00,,,0.26,,2013-05-20 04:42:00,
2013-05-20 00:52:00,61.0,60.0,30.10,NNE,14,0.0,0.0,95,0.00,,,0.26,,2013-05-20 04:52:00,
2013-05-20 01:02:00,60.0,59.0,30.10,NNE,14,0.0,0.0,95,0.00,,,0.26,,2013-05-20 05:02:00,
2013-05-20 01:12:00,60.0,59.0,30.10,NNE,14,0.0,0.0,95,0.00,,,0.26,,2013-05-20 05:12:00,
2013-05-20 01:22:00,60.0,59.0,30.10,NNE,14,0.0,0.0,95,0.00,,,0.26,,2013-05-20 05:22:00,
2013-05-20 01:32:00,60.0,59.0,30.11,NNE,22,0.0,1.0,95,0.00,,,0.26,,2013-05-20 05:32:00,
2013-05-20 01:42:00,60.0,59.0,30.11,NNE,22,0.0,1.0,95,0.00,,,0.26,,2013-05-20 05:42:00,
2013-05-20 01:51:00,60.0,59.0,30.11,NNE,22,0.0,1.0,96,0.00,,,0.26,,2013-05-20 05:51:00,
2013-05-20 02:01:00,59.0,58.0,30.10,NNE,22,0.0,1.0,96,0.00,,,0.26,,2013-05-20 06:01:00,
2013-05-20 02:11:00,59.0,58.0,30.10,NNE,22,0.0,1.0,96,0.00,,,0.26,,2013-05-20 06:11:00,
2013-05-20 02:21:00,59.0,58.0,30.10,NNE,22,0.0,1.0,96,0.00,,,0.26,,2013-05-20 06:21:00,
2013-05-20 02:32:00,60.0,59.0,30.10,NNE,22,0.0,0.0,97,0.00,,,0.26,,2013-05-20 06:32:00,
2013-05-20 02:42:00,60.0,59.0,30.10,NNE,22,0.0,0.0,97,0.00,,,0.26,,2013-05-20 06:42:00,
2013-05-20 02:52:00,60.0,59.0,30.10,NNE,23,0.0,1.0,97,0.00,,,0.26,,2013-05-20 06:52:00,
2013-05-20 03:02:00,60.0,59.0,30.10,NNE,23,0.0,0.0,96,0.00,,,0.26,,2013-05-20 07:02:00,
2013-05-20 03:12:00,60.0,59.0,30.10,NNE,23,0.0,0.0,96,0.00,,,0.26,,2013-05-20 07:12:00,
2013-05-20 03:21:00,59.0,58.0,30.10,NNE,23,0.0,1.0,97,0.00,,,0.26,,2013-05-20 07:21:00,
2013-05-20 03:32:00,60.0,59.0,30.10,NNE,33,0.0,1.0,97,0.00,,,0.26,,2013-05-20 07:32:00,
2013-05-20 03:42:00,60.0,59.0,30.10,NNE,33,0.0,1.0,97,0.00,,,0.26,,2013-05-20 07:42:00,
2013-05-20 03:52:00,60.0,59.0,30.10,NNE,33,0.0,0.0,97,0.00,,,0.26,,2013-05-20 07:52:00,
2013-05-20 04:01:00,60.0,59.0,30.10,NNE,33,0.0,0.0,97,0.00,,,0.26,,2013-05-20 08:01:00,
2013-05-20 04:11:00,60.0,59.0,30.10,NNE,33,0.0,0.0,97,0.00,,,0.26,,2013-05-20 08:11:00,
2013-05-20 04:21:00,60.0,59.0,30.10,NNE,33,0.0,0.0,97,0.00,,,0.26,,2013-05-20 08:21:00,
2013-05-20 04:32:00,60.0,59.0,30.10,NNE,33,0.0,1.0,97,0.00,,,0.26,,2013-05-20 08:32:00,
2013-05-20 04:42:00,60.0,59.0,30.10,NNE,33,0.0,1.0,97,0.00,,,0.26,,2013-05-20 08:42:00,
2013-05-20 04:51:00,60.0,59.0,30.09,NNE,33,0.0,0.0,97,0.00,,,0.26,,2013-05-20 08:51:00,
2013-05-20 05:02:00,60.0,59.0,30.10,NNE,33,0.0,0.0,98,0.00,,,0.26,,2013-05-20 09:02:00,
2013-05-20 05:12:00,60.0,59.0,30.10,NNE,33,0.0,0.0,98,0.00,,,0.26,,2013-05-20 09:12:00,
2013-05-20 05:22:00,60.0,59.0,30.10,NNE,33,0.0,0.0,97,0.00,,,0.26,,2013-05-20 09:22:00,
2013-05-20 05:33:00,60.0,59.0,30.10,NNE,33,0.0,1.0,97,0.00,,,0.26,,2013-05-20 09:33:00,
2013-05-20 05:43:00,60.0,59.0,30.10,NNE,33,0.0,1.0,97,0.00,,,0.26,,2013-05-20 09:43:00,
2013-05-20 05:52:00,60.0,59.0,30.09,NNE,33,0.0,0.0,97,0.00,,,0.26,,2013-05-20 09:52:00,
2013-05-20 06:03:00,60.0,59.0,30.09,NNE,33,0.0,0.0,98,0.00,,,0.26,,2013-05-20 10:03:00,
2013-05-20 06:12:00,60.0,59.0,30.09,NNE,33,0.0,0.0,98,0.00,,,0.26,,2013-05-20 10:12:00,
2013-05-20 06:22:00,60.0,59.0,30.09,NNE,33,0.0,0.0,98,0.00,,,0.26,,2013-05-20 10:22:00,
2013-05-20 06:33:00,60.0,59.0,30.10,ENE,66,1.0,2.0,97,0.00,,,0.26,,2013-05-20 10:33:00,
2013-05-20 06:42:00,60.0,59.0,30.10,ENE,66,1.0,2.0,97,0.00,,,0.26,,2013-05-20 10:42:00,
2013-05-20 06:52:00,60.0,59.0,30.09,ENE,66,0.0,0.0,97,0.00,,,0.26,,2013-05-20 10:52:00,
2013-05-20 07:02:00,60.0,59.0,30.10,ENE,66,0.0,1.0,97,0.00,,,0.26,,2013-05-20 11:02:00,
2013-05-20 07:12:00,60.0,59.0,30.10,ENE,66,0.0,1.0,97,0.00,,,0.26,,2013-05-20 11:12:00,
2013-05-20 07:22:00,60.0,59.0,30.10,ENE,66,0.0,2.0,97,0.00,,,0.26,,2013-05-20 11:22:00,
2013-05-20 07:32:00,59.0,58.0,30.12,ENE,66,0.0,0.0,97,0.00,,,0.26,,2013-05-20 11:32:00,
2013-05-20 07:42:00,59.0,58.0,30.12,ENE,66,0.0,0.0,97,0.00,,,0.26,,2013-05-20 11:42:00,
2013-05-20 07:51:00,60.0,59.0,30.12,ENE,66,0.0,0.0,97,0.00,,,0.26,,2013-05-20 11:51:00,
2013-05-20 08:01:00,60.0,59.0,30.12,ENE,66,0.0,0.0,98,0.00,,,0.17,,2013-05-20 12:01:00,
2013-05-20 08:12:00,60.0,59.0,30.12,ENE,66,0.0,0.0,98,0.00,,,0.17,,2013-05-20 12:12:00,
2013-05-20 08:21:00,60.0,59.0,30.12,ENE,66,0.0,0.0,98,0.00,,,0.17,,2013-05-20 12:21:00,
2013-05-20 08:32:00,60.0,59.0,30.12,ENE,66,0.0,1.0,98,0.00,,,0.17,,2013-05-20 12:32:00,
2013-05-20 08:42:00,60.0,59.0,30.12,ENE,66,0.0,1.0,98,0.00,,,0.17,,2013-05-20 12:42:00,
2013-05-20 08:52:00,60.0,59.0,30.12,ENE,66,0.0,0.0,98,0.00,,,0.17,,2013-05-20 12:52:00,
2013-05-20 09:01:00,62.0,61.0,30.13,ENE,68,0.0,1.0,98,0.00,,,0.01,,2013-05-20 13:01:00,
2013-05-20 09:11:00,62.0,61.0,30.13,ENE,68,0.0,1.0,98,0.00,,,0.01,,2013-05-20 13:11:00,
2013-05-20 09:22:00,62.0,61.0,30.13,ENE,68,0.0,1.0,98,0.00,,,0.01,,2013-05-20 13:22:00,
2013-05-20 09:32:00,63.0,62.0,30.14,ENE,68,0.0,0.0,98,0.00,,,0.01,,2013-05-20 13:32:00,
2013-05-20 09:41:00,63.0,62.0,30.14,ENE,68,0.0,0.0,98,0.00,,,0.01,,2013-05-20 13:41:00,
2013-05-20 09:52:00,63.0,62.0,30.14,ENE,68,0.0,0.0,98,0.00,,,0.01,,2013-05-20 13:52:00,
2013-05-20 10:01:00,63.0,62.0,30.14,ENE,68,0.0,0.0,95,0.00,,,0.01,,2013-05-20 14:01:00,
2013-05-20 10:11:00,63.0,62.0,30.14,ENE,68,0.0,0.0,95,0.00,,,0.01,,2013-05-20 14:11:00,
2013-05-20 10:22:00,64.0,62.0,30.14,ENE,68,0.0,0.0,94,0.00,,,0.01,,2013-05-20 14:22:00,
2013-05-20 10:32:00,66.0,63.0,30.14,ENE,70,0.0,2.0,90,0.00,,,0.01,,2013-05-20 14:32:00,
2013-05-20 10:42:00,66.0,63.0,30.14,ENE,70,0.0,2.0,90,0.00,,,0.01,,2013-05-20 14:42:00,
2013-05-20 10:52:00,66.0,62.0,30.14,ENE,70,0.0,1.0,86,0.00,,,0.01,,2013-05-20 14:52:00,
2013-05-20 11:01:00,68.0,63.0,30.14,ENE,70,0.0,2.0,84,0.00,,,0.01,,2013-05-20 15:01:00,
2013-05-20 11:12:00,68.0,63.0,30.14,ENE,70,0.0,2.0,84,0.00,,,0.01,,2013-05-20 15:12:00,
2013-05-20 11:22:00,69.0,63.0,30.15,ENE,70,0.0,1.0,82,0.00,,,0.01,,2013-05-20 15:22:00,
2013-05-20 11:33:00,70.0,63.0,30.15,East,90,0.0,5.0,78,0.00,,,0.01,,2013-05-20 15:33:00,
2013-05-20 11:42:00,70.0,63.0,30.15,East,90,0.0,5.0,78,0.00,,,0.01,,2013-05-20 15:42:00,
2013-05-20 11:53:00,70.0,63.0,30.14,North,358,2.0,5.0,79,0.00,,,0.01,,2013-05-20 15:53:00,
2013-05-20 12:03:00,70.0,62.0,30.15,ENE,59,0.0,5.0,77,0.00,,,0.01,,2013-05-20 16:03:00,
2013-05-20 12:13:00,70.0,62.0,30.15,ENE,59,0.0,5.0,77,0.00,,,0.01,,2013-05-20 16:13:00,
2013-05-20 12:23:00,70.0,61.0,30.15,NNE,26,1.0,7.0,74,0.00,,,0.01,,2013-05-20 16:23:00,
2013-05-20 12:33:00,72.0,62.0,30.15,NNE,22,0.0,5.0,72,0.00,,,0.01,,2013-05-20 16:33:00,
2013-05-20 12:42:00,72.0,62.0,30.15,NNE,22,0.0,5.0,72,0.00,,,0.01,,2013-05-20 16:42:00,
2013-05-20 12:52:00,72.0,63.0,30.14,NNE,20,1.0,6.0,74,0.00,,,0.01,,2013-05-20 16:52:00,
2013-05-20 13:03:00,72.0,62.0,30.14,North,351,1.0,4.0,72,0.00,,,0.01,,2013-05-20 17:03:00,
2013-05-20 13:12:00,72.0,62.0,30.14,North,351,1.0,4.0,72,0.00,,,0.01,,2013-05-20 17:12:00,
2013-05-20 13:22:00,73.0,63.0,30.14,North,3,1.0,4.0,70,0.00,,,0.01,,2013-05-20 17:22:00,
2013-05-20 13:33:00,74.0,64.0,30.13,NNE,12,0.0,2.0,70,0.00,,,0.01,,2013-05-20 17:33:00,
2013-05-20 13:45:00,74.0,64.0,30.13,NNE,12,0.0,2.0,70,0.00,,,0.01,,2013-05-20 17:45:00,
2013-05-20 13:53:00,75.0,64.0,30.13,NNE,12,0.0,2.0,69,0.00,,,0.01,,2013-05-20 17:53:00,
2013-05-20 14:02:00,76.0,64.0,30.12,WSW,258,1.0,6.0,67,0.00,,,0.01,,2013-05-20 18:02:00,
2013-05-20 14:12:00,76.0,64.0,30.12,WSW,258,1.0,6.0,67,0.00,,,0.01,,2013-05-20 18:12:00,
2013-05-20 14:23:00,76.0,64.0,30.12,NW,318,1.0,6.0,66,0.00,,,0.01,,2013-05-20 18:23:00,
2013-05-20 14:33:00,75.0,64.0,30.12,ENE,71,2.0,5.0,69,0.00,,,0.01,,2013-05-20 18:33:00,
2013-05-20 14:42:00,75.0,64.0,30.12,ENE,71,2.0,5.0,69,0.00,,,0.01,,2013-05-20 18:42:00,
2013-05-20 14:55:00,75.0,64.0,30.12,NNE,13,3.0,6.0,68,0.00,,,0.01,,2013-05-20 18:55:00,
2013-05-20 15:04:00,76.0,64.0,30.11,North,0,1.0,3.0,66,0.00,,,0.01,,2013-05-20 19:04:00,
2013-05-20 15:11:00,76.0,64.0,30.11,North,0,1.0,2.0,67,0.00,,,0.01,,2013-05-20 19:11:00,
2013-05-20 15:21:00,76.0,64.0,30.11,North,0,1.0,2.0,67,0.00,,,0.01,,2013-05-20 19:21:00,
2013-05-20 15:32:00,76.0,63.0,30.10,North,7,0.0,6.0,65,0.00,,,0.01,,2013-05-20 19:32:00,
2013-05-20 15:42:00,76.0,63.0,30.10,North,7,0.0,6.0,65,0.00,,,0.01,,2013-05-20 19:42:00,
2013-05-20 15:52:00,76.0,64.0,30.10,ENE,73,3.0,6.0,66,0.00,,,0.01,,2013-05-20 19:52:00,
2013-05-20 16:01:00,75.0,65.0,30.10,North,359,0.0,6.0,70,0.00,,,0.01,,2013-05-20 20:01:00,
2013-05-20 16:12:00,75.0,65.0,30.10,North,0,1.0,7.0,70,0.00,,,0.01,,2013-05-20 20:12:00,
2013-05-20 16:21:00,75.0,65.0,30.10,North,0,1.0,7.0,70,0.00,,,0.01,,2013-05-20 20:21:00,
2013-05-20 16:32:00,75.0,64.0,30.10,ENE,65,1.0,5.0,69,0.00,,,0.01,,2013-05-20 20:32:00,
2013-05-20 16:42:00,75.0,64.0,30.10,NE,37,4.0,6.0,69,0.00,,,0.01,,2013-05-20 20:42:00,
2013-05-20 16:52:00,75.0,64.0,30.10,NE,37,4.0,6.0,69,0.00,,,0.01,,2013-05-20 20:52:00,
2013-05-20 17:01:00,75.0,65.0,30.10,NNE,16,1.0,3.0,70,0.00,,,0.01,,2013-05-20 21:01:00,
2013-05-20 17:11:00,75.0,65.0,30.10,WSW,238,1.0,4.0,72,0.00,,,0.01,,2013-05-20 21:11:00,
2013-05-20 17:21:00,75.0,65.0,30.10,WSW,238,1.0,4.0,72,0.00,,,0.01,,2013-05-20 21:21:00,
2013-05-20 17:33:00,75.0,65.0,30.10,NW,307,3.0,5.0,71,0.00,,,0.01,,2013-05-20 21:33:00,
2013-05-20 17:43:00,74.0,65.0,30.10,West,262,1.0,10.0,73,0.00,,,0.01,,2013-05-20 21:43:00,
2013-05-20 17:53:00,74.0,65.0,30.10,West,262,1.0,10.0,73,0.00,,,0.01,,2013-05-20 21:53:00,
2013-05-20 18:02:00,74.0,65.0,30.11,WNW,299,0.0,3.0,74,0.00,,,0.01,,2013-05-20 22:02:00,
2013-05-20 18:12:00,73.0,64.0,30.11,West,273,0.0,3.0,74,0.00,,,0.01,,2013-05-20 22:12:00,
2013-05-20 18:23:00,73.0,64.0,30.11,West,273,0.0,3.0,74,0.00,,,0.01,,2013-05-20 22:23:00,
2013-05-20 18:33:00,73.0,65.0,30.11,West,273,0.0,0.0,75,0.00,,,0.01,,2013-05-20 22:33:00,
2013-05-20 18:42:00,73.0,65.0,30.11,West,273,0.0,0.0,75,0.00,,,0.01,,2013-05-20 22:42:00,
2013-05-20 18:52:00,73.0,65.0,30.10,West,273,0.0,1.0,76,0.00,,,0.01,,2013-05-20 22:52:00,
2013-05-20 19:03:00,73.0,65.0,30.09,West,274,0.0,0.0,75,0.00,,,0.01,,2013-05-20 23:03:00,
2013-05-20 19:12:00,73.0,65.0,30.09,West,274,0.0,0.0,75,0.00,,,0.01,,2013-05-20 23:12:00,
2013-05-20 19:22:00,73.0,65.0,30.09,West,274,0.0,2.0,75,0.00,,,0.01,,2013-05-20 23:22:00,
2013-05-20 19:32:00,73.0,65.0,30.08,West,274,0.0,2.0,76,0.00,,,0.01,,2013-05-20 23:32:00,
2013-05-20 19:42:00,73.0,65.0,30.08,West,274,0.0,2.0,76,0.00,,,0.01,,2013-05-20 23:42:00,
2013-05-20 19:52:00,73.0,65.0,30.08,West,274,0.0,0.0,76,0.00,,,0.01,,2013-05-20 23:52:00,
2013-05-20 20:01:00,73.0,65.0,30.09,West,273,0.0,3.0,76,0.00,,,0.01,,2013-05-21 00:01:00,
2013-05-20 20:11:00,73.0,65.0,30.09,West,273,0.0,3.0,76,0.00,,,0.01,,2013-05-21 00:11:00,
2013-05-20 20:21:00,72.0,64.0,30.09,West,273,0.0,2.0,75,0.00,,,0.01,,2013-05-21 00:21:00,
2013-05-20 20:32:00,70.0,63.0,30.09,West,273,0.0,0.0,78,0.00,,,0.01,,2013-05-21 00:32:00,
2013-05-20 20:42:00,70.0,64.0,30.09,West,273,0.0,0.0,80,0.00,,,0.01,,2013-05-21 00:42:00,
2013-05-20 20:52:00,70.0,64.0,30.09,West,273,0.0,0.0,80,0.00,,,0.01,,2013-05-21 00:52:00,
2013-05-20 21:01:00,68.0,62.0,30.11,West,273,0.0,1.0,82,0.00,,,0.01,,2013-05-21 01:01:00,
2013-05-20 21:11:00,68.0,62.0,30.11,West,273,0.0,1.0,82,0.00,,,0.01,,2013-05-21 01:11:00,
2013-05-20 21:22:00,68.0,63.0,30.10,West,273,0.0,0.0,83,0.00,,,0.01,,2013-05-21 01:22:00,
2013-05-20 21:32:00,67.0,62.0,30.10,North,358,0.0,0.0,84,0.00,,,0.01,,2013-05-21 01:32:00,
2013-05-20 21:42:00,67.0,62.0,30.10,North,0,0.0,2.0,85,0.00,,,0.01,,2013-05-21 01:42:00,
2013-05-20 21:52:00,67.0,62.0,30.10,North,0,0.0,2.0,85,0.00,,,0.01,,2013-05-21 01:52:00,
2013-05-20 22:02:00,66.0,62.0,30.11,North,0,0.0,0.0,87,0.00,,,0.01,,2013-05-21 02:02:00,
2013-05-20 22:11:00,65.0,61.0,30.11,North,0,0.0,0.0,87,0.00,,,0.01,,2013-05-21 02:11:00,
2013-05-20 22:21:00,65.0,61.0,30.11,North,0,0.0,0.0,87,0.00,,,0.01,,2013-05-21 02:21:00,
2013-05-20 22:32:00,65.0,62.0,30.11,North,0,0.0,0.0,89,0.00,,,0.01,,2013-05-21 02:32:00,
2013-05-20 22:42:00,64.0,61.0,30.11,North,0,0.0,0.0,89,0.00,,,0.01,,2013-05-21 02:42:00,
2013-05-20 22:52:00,64.0,61.0,30.11,North,0,0.0,0.0,89,0.00,,,0.01,,2013-05-21 02:52:00,
2013-05-20 23:02:00,64.0,61.0,30.11,NE,47,0.0,2.0,90,0.00,,,0.00,,2013-05-21 03:02:00,
2013-05-20 23:11:00,63.0,60.0,30.11,NE,47,0.0,0.0,90,0.00,,,0.00,,2013-05-21 03:11:00,
2013-05-20 23:21:00,63.0,60.0,30.11,NE,47,0.0,0.0,90,0.00,,,0.00,,2013-05-21 03:21:00,
2013-05-20 23:33:00,63.0,60.0,30.11,NE,47,0.0,1.0,91,0.00,,,0.00,,2013-05-21 03:33:00,
2013-05-20 23:43:00,63.0,60.0,30.11,NE,47,0.0,1.0,91,0.00,,,0.00,,2013-05-21 03:43:00,
2013-05-20 23:53:00,63.0,60.0,30.11,NE,47,0.0,1.0,91,0.00,,,0.00,,2013-05-21 03:53:00,